Savoonga, AK

2:15 AM AKST on February 22, 2017 (GMT -0900)
Savoonga

Weather History for PASA - October, 2011

Change the Weather History Date:

Sunday, October 16, 2011

  Actual Average Record
Temperature  
Mean Temperature 35 °F -  
Max Temperature 37 °F 32 °F 44 °F (2013)
Min Temperature 33 °F 27 °F 19 °F (1996)
Degree Days  
Heating Degree Days 30    
Moisture  
Dew Point 27 °F    
Average Humidity 69    
Maximum Humidity 81    
Minimum Humidity 56    
Precipitation  
Precipitation 0.00 in - - ()
Sea Level Pressure  
Sea Level Pressure 29.75 in    
Wind  
Wind Speed 12 mph (WNW)    
Max Wind Speed 17 mph    
Max Gust Speed 21 mph    
Visibility 10 miles    
Events      
Averages and records for this station are not official NWS values.
T = Trace of Precipitation, MM = Missing Value Source: NWS Daily Summary

Daily Weather History Graph

Daily Weather History Graph

Search for Another Location

Airport or City:

Trip Planner

Search our weather history database for the weather conditions in past years. The results will help you decide how hot, cold, wet, or windy it might be!

Date:

Astronomy

Oct. 16, 2011 Rise Set
Actual Time 10:13 AM AKDT 7:59 PM AKDT
Civil Twilight 9:25 AM AKDT 8:47 PM AKDT
Nautical Twilight 8:31 AM AKDT 9:41 PM AKDT
Astronomical Twilight 7:36 AM AKDT 10:36 PM AKDT
Moon 9:06 PM AKDT (10/16) 4:34 PM AKDT (10/16)
Length of Visible Light 11h 22m
Length of Day
9h 45m
Waning Gibbous, 81% of the Moon is Illuminated
Oct 16
Waning Gibbous
Oct 19
Last Quarter
Oct 26
New
Nov 2
First Quarter
Nov 10
Full

Hourly Weather History & Observations

Time (AKDT) Temp. Windchill Dew Point Humidity Pressure Visibility Wind Dir Wind Speed Gust Speed Precip Events Conditions
12:16 AM 35.6 °F 28.6 °F 28.4 °F 75% 29.74 in 10.0 mi NNW 9.2 mph - N/A   Overcast
12:36 AM 35.6 °F 28.6 °F 26.6 °F 70% 29.74 in 10.0 mi NW 9.2 mph - N/A   Overcast
12:56 AM 35.6 °F 28.0 °F 28.4 °F 75% 29.75 in 10.0 mi NNW 10.4 mph - N/A   Overcast
1:16 AM 35.6 °F 28.0 °F 26.6 °F 70% 29.75 in 10.0 mi NNW 10.4 mph - N/A   Overcast
1:36 AM 35.6 °F 28.6 °F 26.6 °F 70% 29.75 in 10.0 mi NW 9.2 mph - N/A   Overcast
1:56 AM 35.6 °F 28.0 °F 26.6 °F 70% 29.75 in 10.0 mi NW 10.4 mph - N/A   Overcast
2:16 AM 35.6 °F 28.0 °F 28.4 °F 75% 29.75 in 10.0 mi NNW 10.4 mph - N/A   Overcast
2:36 AM 35.6 °F 28.0 °F 26.6 °F 70% 29.75 in 10.0 mi NNW 10.4 mph 16.1 mph N/A   Overcast
2:56 AM 35.6 °F 28.6 °F 26.6 °F 70% 29.75 in 10.0 mi NNW 9.2 mph 16.1 mph N/A   Overcast
3:16 AM 35.6 °F 27.1 °F 28.4 °F 75% 29.75 in 10.0 mi NNW 12.7 mph - N/A   Overcast
3:36 AM 35.6 °F 28.0 °F 26.6 °F 70% 29.75 in 10.0 mi NNW 10.4 mph - N/A   Mostly Cloudy
3:56 AM 35.6 °F 27.1 °F 26.6 °F 70% 29.75 in 10.0 mi NNW 12.7 mph - N/A   Overcast
4:16 AM 35.6 °F 28.6 °F 26.6 °F 70% 29.75 in 10.0 mi NW 9.2 mph - N/A   Overcast
4:36 AM 35.6 °F 27.5 °F 26.6 °F 70% 29.75 in 10.0 mi NNW 11.5 mph - N/A   Overcast
4:56 AM 35.6 °F 28.0 °F 26.6 °F 70% 29.75 in 10.0 mi NW 10.4 mph - N/A   Overcast
5:16 AM 35.6 °F 27.5 °F 26.6 °F 70% 29.75 in 10.0 mi NW 11.5 mph - N/A   Overcast
5:36 AM 35.6 °F 27.1 °F 26.6 °F 70% 29.75 in 10.0 mi NW 12.7 mph - N/A   Overcast
5:56 AM 35.6 °F 27.5 °F 26.6 °F 70% 29.75 in 10.0 mi NW 11.5 mph - N/A   Overcast
6:16 AM 35.6 °F 26.6 °F 26.6 °F 70% 29.75 in 10.0 mi NW 13.8 mph - N/A   Overcast
6:36 AM 35.6 °F 26.6 °F 24.8 °F 65% 29.75 in 10.0 mi NW 13.8 mph - N/A   Overcast
6:56 AM 35.6 °F 27.1 °F 26.6 °F 70% 29.75 in 10.0 mi NW 12.7 mph - N/A   Overcast
7:16 AM 35.6 °F 28.0 °F 26.6 °F 70% 29.75 in 10.0 mi NW 10.4 mph - N/A   Overcast
7:36 AM 35.6 °F 28.0 °F 26.6 °F 70% 29.75 in 10.0 mi NW 10.4 mph - N/A   Mostly Cloudy
7:56 AM 35.6 °F 27.5 °F 24.8 °F 65% 29.75 in 10.0 mi WNW 11.5 mph - N/A   Mostly Cloudy
8:16 AM 35.6 °F 27.5 °F 24.8 °F 65% 29.75 in 10.0 mi NW 11.5 mph - N/A   Scattered Clouds
8:36 AM 35.6 °F 27.1 °F 26.6 °F 70% 29.75 in 10.0 mi NW 12.7 mph - N/A   Scattered Clouds
8:56 AM 35.6 °F 28.0 °F 24.8 °F 65% 29.75 in 10.0 mi NW 10.4 mph - N/A   Mostly Cloudy
9:16 AM 35.6 °F 27.1 °F 24.8 °F 65% 29.75 in 10.0 mi NW 12.7 mph - N/A   Overcast
9:36 AM 35.6 °F 27.5 °F 24.8 °F 65% 29.75 in 10.0 mi NW 11.5 mph - N/A   Overcast
9:56 AM 35.6 °F 27.5 °F 26.6 °F 70% 29.75 in 10.0 mi WNW 11.5 mph - N/A   Overcast
10:16 AM 35.6 °F 27.1 °F 26.6 °F 70% 29.75 in 10.0 mi WNW 12.7 mph - N/A   Overcast
10:36 AM 35.6 °F 27.5 °F 21.2 °F 56% 29.75 in 10.0 mi WNW 11.5 mph - N/A   Overcast
10:56 AM 35.6 °F 27.5 °F 24.8 °F 65% 29.75 in 10.0 mi WNW 11.5 mph 16.1 mph N/A   Overcast
11:16 AM 33.8 °F 25.3 °F 28.4 °F 81% 29.75 in 7.0 mi West 11.5 mph - N/A   Mostly Cloudy
11:36 AM 35.6 °F 27.1 °F 26.6 °F 70% 29.75 in 10.0 mi West 12.7 mph - N/A   Mostly Cloudy
11:56 AM 35.6 °F 26.2 °F 24.8 °F 65% 29.74 in 10.0 mi West 15.0 mph - N/A   Overcast
12:16 PM 35.6 °F 27.1 °F 26.6 °F 70% 29.75 in 10.0 mi West 12.7 mph - N/A   Overcast
12:36 PM 35.6 °F 25.9 °F 26.6 °F 70% 29.75 in 10.0 mi West 16.1 mph - N/A   Overcast
12:56 PM 35.6 °F 26.6 °F 26.6 °F 70% 29.75 in 10.0 mi West 13.8 mph 20.7 mph N/A   Overcast
1:16 PM 35.6 °F 25.9 °F 26.6 °F 70% 29.75 in 10.0 mi West 16.1 mph - N/A   Overcast
1:36 PM 35.6 °F 27.1 °F 26.6 °F 70% 29.75 in 10.0 mi West 12.7 mph 18.4 mph N/A   Overcast
1:56 PM 37.4 °F 28.2 °F 28.4 °F 70% 29.75 in 10.0 mi West 16.1 mph - N/A   Overcast
2:16 PM 37.4 °F 27.8 °F 26.6 °F 65% 29.75 in 10.0 mi West 17.3 mph - N/A   Overcast
2:36 PM 37.4 °F 28.9 °F 26.6 °F 65% 29.75 in 10.0 mi West 13.8 mph - N/A   Overcast
2:56 PM 37.4 °F 28.9 °F 28.4 °F 70% 29.74 in 10.0 mi West 13.8 mph 18.4 mph N/A   Overcast
3:16 PM 37.4 °F 29.3 °F 26.6 °F 65% 29.74 in 10.0 mi WNW 12.7 mph - N/A   Mostly Cloudy
3:36 PM 37.4 °F 28.9 °F 26.6 °F 65% 29.74 in 10.0 mi WNW 13.8 mph - N/A   Overcast
3:56 PM 35.6 °F 26.6 °F 26.6 °F 70% 29.74 in 10.0 mi WNW 13.8 mph - N/A   Overcast
4:16 PM 37.4 °F 28.2 °F 26.6 °F 65% 29.74 in 10.0 mi West 16.1 mph 19.6 mph N/A   Overcast
4:36 PM 35.6 °F 26.6 °F 28.4 °F 75% 29.74 in 10.0 mi West 13.8 mph - N/A   Overcast
4:56 PM 35.6 °F 25.9 °F 28.4 °F 75% 29.74 in 9.0 mi West 16.1 mph 20.7 mph N/A   Overcast
5:16 PM 35.6 °F 25.9 °F 26.6 °F 70% 29.73 in 10.0 mi West 16.1 mph 20.7 mph N/A   Overcast
5:36 PM 35.6 °F 26.2 °F 26.6 °F 70% 29.73 in 10.0 mi WNW 15.0 mph - N/A   Overcast
5:56 PM 35.6 °F 26.6 °F 26.6 °F 70% 29.73 in 10.0 mi WNW 13.8 mph 19.6 mph N/A   Overcast
6:16 PM 35.6 °F 26.2 °F 26.6 °F 70% 29.73 in 10.0 mi West 15.0 mph - N/A   Overcast
6:36 PM 35.6 °F 26.2 °F 26.6 °F 70% 29.73 in 10.0 mi WNW 15.0 mph 18.4 mph N/A   Overcast
6:56 PM 35.6 °F 27.1 °F 26.6 °F 70% 29.73 in 10.0 mi WNW 12.7 mph - N/A   Overcast
7:16 PM 35.6 °F 28.0 °F 24.8 °F 65% 29.73 in 10.0 mi WNW 10.4 mph - N/A   Overcast
7:36 PM 35.6 °F 27.1 °F 26.6 °F 70% 29.73 in 10.0 mi WNW 12.7 mph - N/A   Overcast
7:56 PM 35.6 °F 27.1 °F 28.4 °F 75% 29.73 in 10.0 mi WNW 12.7 mph - N/A   Overcast
8:16 PM 35.6 °F 27.1 °F 26.6 °F 70% 29.73 in 10.0 mi WNW 12.7 mph - N/A   Overcast
8:36 PM 35.6 °F 25.9 °F 26.6 °F 70% 29.73 in 10.0 mi West 16.1 mph - N/A   Overcast
8:56 PM 35.6 °F 26.6 °F 28.4 °F 75% 29.73 in 10.0 mi West 13.8 mph - N/A   Overcast
9:16 PM 35.6 °F 26.6 °F 28.4 °F 75% 29.73 in 10.0 mi WNW 13.8 mph - N/A   Overcast
9:36 PM 35.6 °F 26.6 °F 28.4 °F 75% 29.73 in 10.0 mi WNW 13.8 mph 18.4 mph N/A   Overcast
9:56 PM 35.6 °F 27.1 °F 28.4 °F 75% 29.73 in 10.0 mi WNW 12.7 mph - N/A   Overcast
10:16 PM 35.6 °F 27.1 °F 28.4 °F 75% 29.73 in 10.0 mi West 12.7 mph 20.7 mph N/A   Overcast
10:36 PM 33.8 °F 24.3 °F 30.2 °F 87% 29.74 in 7.0 mi NW 13.8 mph - N/A   Mostly Cloudy
10:56 PM 33.8 °F 25.8 °F 30.2 °F 87% 29.74 in 10.0 mi WNW 10.4 mph - N/A   Mostly Cloudy
11:36 PM 33.8 °F 26.4 °F 30.2 °F 87% 29.74 in 9.0 mi WNW 9.2 mph - N/A   Overcast
11:56 PM 33.8 °F 23.5 °F 30.2 °F 87% 29.74 in 10.0 mi WNW 16.1 mph - N/A   Overcast